Погода в Приазовском

Украина / Запорожская область     46°44′16″N   35°38′04″E
темп.,
°C
ветер,
м/с
пор.,
м/с
влажн.,
%
обл.,
%
осадки,
мм/ч
давл.,
гПа
погр.,
м
28 января, чт
чт2823:00+9юв71477100 0.0 998402
02:00+7в5782100 0.2 997145
05:00+6вюв61083100 0.0 997246
08:00+6ююз61184100 0.0 998584
11:00+7ююз7967100 0.0 999977
14:00+6ююз71065100 0.0 10011160
17:00+4ююз7126595 0.0 10031279
20:00+2ююз9156754 0.0 10041163
29 января, пт
пт2923:00+1юз10159349 0.0 1005949
02:00+2юз9167574 0.1 10061323
05:00+1юз5118892 0.0 1007647
08:00+1зюз498393 0.1 1008659
11:00+4юз7116692 0.1 10081334
14:00+5юз8125994 0.2 10071592
17:00+4ююз61368100 0.1 1006783
20:00+5ююз91474100 0.1 1006971
30 января, сб
сб3023:00+4ююз101591100 0.8 1005903
02:00+4юз71292100 2.5 1006759
05:00+5ююз71191100 0.1 1005513
08:00+5ююз61186100 0.3 1005584
11:00+6ююз61179100 0.1 1005747
14:00+8ююз81164100 0.1 1003749
17:00+7ю61368100 0.0 1002489
20:00+6ю71372100 0.0 1002510
31 января, вс
вс3123:00+6ю61380100 0.0 1001601
02:00+6ю3688100 0.1 1000178
05:00+6ю4787100 0.2 999203
08:00+6юз51272100 0.2 1002383
11:00+9зюз71163100 0.0 1004752
14:00+10зюз6106298 0.0 10061199
17:00+8юз3776100 0.0 1008222
20:00+7ю2384100 0.0 100958
1 февраля, пн
пн123:00+6ююв4891100 0.0 1009220
02:00+7ю51290100 0.0 1008403
05:00+7юв71386100 0.0 1005416
08:00+8ююв81684100 0.0 1004508
11:00+9ююз91675100 0.6 1004741
14:00+10ююз91879100 1.4 1003984
17:00+10ююз71578100 0.5 1004780
20:00+9юз71389100 0.6 1007592